Regional Weather Roundup
Issued by NWS Cleveland, OH

Home | Current Version | Previous Version | Text Only | Print | Product List | Glossary On
Versions: 1 2 3 4 5 6 7 8 9 10 11 12 13 14 15 16 17 18 19 20 21 22 23 24 25 26 27 28 29 30 31 32 33 34 35 36 37 38 39 40 41 42 43 44 45 46 47 48 49 50
000
ASUS41 KCLE 012012
RWRCLE
OHIO REGIONAL WEATHER ROUNDUP
NATIONAL WEATHER SERVICE WILMINGTON, OH
300 PM EST WED MAR 01 2017

NOTE: "FAIR" INDICATES FEW OR NO CLOUDS BELOW 12,000 FEET WITH NO
SIGNIFICANT WEATHER AND/OR OBSTRUCTIONS TO VISIBILITY.

OHZ001>008-015>018-024>027-034-035-043-044-012100-
   NORTHWEST OHIO

CITY           SKY/WX    TMP DP  RH WIND       PRES   REMARKS
DEFIANCE       CLOUDY    46  39  76 W17G32    29.52R
FINDLAY        CLOUDY    51  42  71 W38G52    29.52R
TOLEDO EXPRESS CLOUDY    48  44  86 W31G41    29.46R
TOLEDO EXEC    LGT RAIN  54  47  77 W32G52    29.44R
LIMA           CLOUDY    49  43  80 W31G43    29.58R
$$

OHZ009>014-019>023-028>033-038-089-012100-
   NORTHEAST OHIO

CITY           SKY/WX    TMP DP  RH WIND       PRES   REMARKS
CLE-HOPKINS    CLOUDY    59  48  67 SW23G29   29.44S
CLE-LAKEFRONT  CLOUDY    58  49  72 SW21G36   29.40S
CUY CO. ARPT   LGT RAIN  59  50  72 SW22G37   29.42S
LORAIN-ELYRIA  LGT RAIN  57  47  69 W28G36    29.44S
ASHTABULA      CLOUDY    58  49  72 SW16      29.40F
AKRON-CANTON   CLOUDY    59  47  64 W20G28    29.47S
WOOSTER        CLOUDY    57  48  72 W22G35    29.48R
MANSFIELD      CLOUDY    55  48  77 SW23G35   29.48R
YOUNGSTOWN     CLOUDY    58  48  69 SW24G36   29.45F
$$

OHZ042-051>053-060>062-070>072-077>081-012100-
  SOUTHWEST OHIO

CITY           SKY/WX    TMP DP  RH WIND       PRES   REMARKS
CINC-COVINGTON CLOUDY    57  46  66 W35G45    29.66R
CINC-LUNKEN    PTSUNNY   63  48  58 W26G36    29.65R
HAMILTON       CLOUDY    57  46  66 W21G39    29.66R
DAYTON         CLOUDY    51  43  74 W24G40    29.64R
WRIGHT-PAT AFB CLOUDY    55  46  71 W25G37    29.61R
DAYTON GENERAL CLOUDY    54  43  66 W22G43    29.63R
WILMINGTON     PTSUNNY   59  47  64 W29G40    29.59S
$$

OHZ036-037-039>041-045>050-054>059-063>069-073>076-082>088-012100-
  CENTRAL AND SOUTHEAST OHIO

CITY           SKY/WX    TMP DP  RH WIND       PRES   REMARKS
COLUMBUS       PTSUNNY   61  50  67 SW20      29.55R
OSU AIRPORT    FAIR      61  50  67 W22G39    29.54F
BOLTON FIELD   PTSUNNY   61  52  72 W25G37    29.57R
RICKENBACK AFB PTSUNNY   59  51  75 W23       29.57R
NEWARK         CLOUDY    60  49  66 W23G31    29.55R
MARION         PTSUNNY   55  44  66 W31G47    29.53R
LANCASTER      PTSUNNY   62  50  64 W22G35    29.59R
ZANESVILLE     CLOUDY    60  50  69 SW13      29.55R
NEW PHILLY     CLOUDY    60  50  69 SW10G21   29.51S
$$




USA.gov is the U.S. government's official web portal to all federal, state and local government web resources and services.